EW9945 Weather Reports


Display with metric or nautical units.
time (UTC)temp
F
wind
direction
speed
MPH
gust
MPH
rain 1hr
in
rain 24hr
in
rain mn
in
humidity
%
barometer
mb
20210801135513 65 150 1.0 5.0 0.00 0.01 0.01 77 1010.5
20210801135002 64 156 2.0 5.0 0.00 0.01 0.01 77 1010.6
20210801134503 64 154 3.0 5.0 0.00 0.01 0.01 76 1010.8
20210801134005 64 153 2.0 6.0 0.00 0.01 0.01 76 1010.7
20210801133502 64 153 3.0 6.0 0.00 0.01 0.01 76 1010.7
20210801133001 65 152 3.0 6.0 0.00 0.01 0.01 74 1010.7
20210801132601 65 136 3.0 7.0 0.00 0.01 0.01 74 1010.9
20210801132100 66 153 3.0 7.0 0.00 0.01 0.01 71 1010.9
20210801131127 70 13 0.0 0.0 0.00 0.01 0.01 70 1010.8
20210801130557 69 13 0.0 0.0 0.00 0.01 0.01 71 1010.9
20210801130200 69 13 0.0 0.0 0.00 0.01 0.01 73 1010.9
20210801125610 68 13 0.0 0.0 0.00 0.01 0.01 72 1011.0
20210801125054 67 13 0.0 0.0 0.00 0.01 0.01 73 1011.0
20210801124614 66 13 0.0 0.0 0.00 0.01 0.01 76 1011.1
20210801124059 65 13 0.0 0.0 0.00 0.01 0.01 77 1011.1
20210801123557 64 13 0.0 0.0 0.00 0.01 0.01 79 1011.2
20210801123109 63 13 0.0 0.0 0.00 0.01 0.01 82 1011.2
20210801122546 62 13 0.0 0.0 0.00 0.01 0.01 84 1011.2
20210801122048 61 13 0.0 0.0 0.00 0.01 0.01 84 1011.2
20210801121044 60 13 0.0 0.0 0.00 0.01 0.01 87 1011.2
20210801120543 59 13 0.0 0.0 0.00 0.01 0.01 89 1011.1
20210801120123 59 13 0.0 0.0 0.00 0.01 0.01 91 1011.2
20210801115545 58 13 0.0 0.0 0.00 0.01 0.01 92 1011.3
20210801115042 57 13 0.0 0.0 0.00 0.01 0.01 93 1011.2
20210801114644 56 13 0.0 0.0 0.00 0.01 0.01 93 1011.2
20210801114041 56 13 0.0 0.0 0.00 0.01 0.01 93 1011.2
20210801113543 56 13 0.0 0.0 0.00 0.01 0.01 93 1011.2
20210801113120 55 13 0.0 0.0 0.00 0.01 0.01 94 1011.3
20210801112553 55 13 0.0 0.0 0.00 0.01 0.01 94 1011.3
20210801112038 54 13 0.0 0.0 0.00 0.01 0.01 94 1011.4
20210801111036 53 13 0.0 0.0 0.00 0.01 0.01 93 1011.5
20210801110537 52 13 0.0 0.0 0.00 0.01 0.01 93 1011.5
20210801110129 52 13 0.0 0.0 0.01 0.01 0.01 93 1011.4
20210801105542 52 13 0.0 0.0 0.01 0.01 0.01 93 1011.5
20210801105044 52 13 0.0 0.0 0.01 0.01 0.01 93 1011.5
20210801104546 52 13 0.0 0.0 0.01 0.01 0.01 93 1011.5
20210801104043 52 13 0.0 0.0 0.01 0.01 0.01 93 1011.5
20210801103536 52 13 0.0 0.0 0.01 0.01 0.01 93 1011.5
20210801103054 52 13 0.0 0.0 0.01 0.01 0.01 93 1011.5
20210801102536 52 13 0.0 0.0 0.01 0.01 0.01 93 1011.6
20210801102054 52 13 0.0 0.0 0.01 0.01 0.01 93 1011.7
20210801101038 52 13 0.0 0.0 0.01 0.02 0.01 93 1011.6
20210801100606 52 13 0.0 0.0 0.01 0.02 0.01 93 1011.6
20210801100208 52 13 0.0 0.0 0.01 0.02 0.01 93 1011.7
20210801095539 52 13 0.0 0.0 0.00 0.01 0.00 93 1011.7
20210801095036 52 13 0.0 0.0 0.00 0.01 0.00 93 1011.7
20210801094607 52 13 0.0 0.0 0.00 0.01 0.00 93 1011.7
20210801094033 52 13 0.0 0.0 0.00 0.01 0.00 93 1011.8
20210801093541 52 13 0.0 0.0 0.00 0.01 0.00 93 1011.8
20210801093114 53 13 0.0 0.0 0.00 0.01 0.00 93 1011.7
20210801092533 53 13 0.0 0.0 0.00 0.01 0.00 93 1011.7
20210801092034 53 13 0.0 0.0 0.00 0.01 0.00 93 1011.8
20210801091033 53 13 0.0 0.0 0.00 0.01 0.00 93 1011.7
20210801090537 53 13 0.0 0.0 0.00 0.01 0.00 93 1011.7
20210801090045 52 13 0.0 1.0 0.00 0.01 0.00 93 1011.8
20210801085533 52 13 0.0 2.0 0.00 0.01 0.00 93 1011.9
20210801085032 52 13 0.0 3.0 0.00 0.01 0.00 92 1011.9
20210801084646 53 13 1.0 3.0 0.00 0.01 0.00 92 1011.7
20210801084031 53 13 0.0 0.0 0.00 0.01 0.00 92 1011.7
20210801083530 53 13 0.0 0.0 0.00 0.01 0.00 92 1011.7
20210801083138 53 13 0.0 0.0 0.00 0.01 0.00 92 1011.6
20210801082536 53 13 0.0 0.0 0.00 0.01 0.00 92 1011.5
20210801082030 53 13 0.0 0.0 0.00 0.01 0.00 92 1011.5
20210801081030 53 13 0.0 0.0 0.00 0.01 0.00 92 1011.6
20210801080539 53 13 0.0 0.0 0.00 0.01 0.00 92 1011.6
20210801080045 53 13 0.0 0.0 0.00 0.01 0.00 92 1011.6
20210801075559 53 13 0.0 0.0 0.00 0.01 0.00 92 1011.7
20210801075028 53 13 0.0 0.0 0.00 0.01 0.00 92 1011.7
20210801074600 53 13 0.0 0.0 0.00 0.01 0.00 92 1011.7
20210801074032 53 13 0.0 0.0 0.00 0.01 0.00 92 1011.6
20210801073527 53 13 0.0 0.0 0.00 0.01 0.00 92 1011.7
20210801073109 54 13 0.0 0.0 0.00 0.01 0.00 92 1011.7
20210801072527 54 13 0.0 0.0 0.00 0.01 0.00 92 1011.7
20210801072032 54 13 0.0 0.0 0.00 0.01 0.00 92 1011.8
20210801071044 54 13 0.0 0.0 0.00 0.01 0.00 92 1011.8
20210801070538 54 13 0.0 0.0 0.00 0.01 0.00 92 1011.8
20210801070027 53 13 0.0 0.0 0.00 0.01 0.00 91 1011.9
20210801065524 54 13 0.0 1.0 0.00 0.01 0.00 91 1011.9
20210801065033 54 13 0.0 2.0 0.00 0.01 0.00 91 1012.1
20210801064536 54 13 0.0 3.0 0.00 0.01 0.00 91 1012.1
20210801064022 54 13 2.0 3.0 0.00 0.01 0.00 91 1012.1
20210801063522 54 13 0.0 0.0 0.00 0.01 0.00 90 1012.0
20210801063113 55 13 0.0 0.0 0.00 0.01 0.00 90 1012.1
20210801062541 55 13 0.0 0.0 0.00 0.01 0.00 91 1012.1
20210801062027 55 13 0.0 0.0 0.00 0.01 0.00 91 1012.2
20210801061019 55 13 0.0 0.0 0.00 0.01 0.00 90 1012.4
20210801060519 55 13 0.0 0.0 0.00 0.01 0.00 90 1012.4
20210801060036 54 13 0.0 0.0 0.00 0.01 0.00 90 1012.4
20210801055517 55 13 0.0 0.0 0.00 0.01 0.00 90 1012.4
20210801055024 55 13 0.0 0.0 0.00 0.01 0.00 90 1012.5
20210801054542 55 13 0.0 0.0 0.00 0.01 0.00 89 1012.6
20210801054014 55 13 0.0 1.0 0.00 0.01 0.00 89 1012.7
20210801053514 55 13 0.0 5.0 0.00 0.01 0.00 89 1012.7
20210801053044 56 13 1.0 5.0 0.00 0.01 0.00 89 1012.8
20210801052512 56 32 4.0 5.0 0.00 0.01 0.00 90 1012.8
20210801052012 55 32 0.0 0.0 0.00 0.01 0.00 89 1012.9
20210801051012 55 32 0.0 4.0 0.00 0.01 0.00 88 1013.1
20210801050511 56 32 3.0 4.0 0.00 0.01 0.00 87 1013.1
20210801050021 56 32 0.0 0.0 0.00 0.01 0.00 86 1013.1
20210801045509 57 32 0.0 0.0 0.00 0.01 0.00 85 1013.1
20210801045014 57 32 0.0 0.0 0.00 0.01 0.00 85 1013.1
20210801044512 57 32 0.0 0.0 0.00 0.01 0.00 85 1013.0
20210801044008 57 32 0.0 0.0 0.00 0.01 0.00 83 1013.1
20210801043506 57 32 0.0 0.0 0.00 0.01 0.00 85 1013.1
20210801043008 57 32 0.0 0.0 0.00 0.01 0.00 85 1013.2
20210801042505 57 32 0.0 0.0 0.00 0.01 0.00 85 1013.3
20210801042004 57 32 0.0 0.0 0.00 0.01 0.00 85 1013.2
20210801041006 58 32 0.0 0.0 0.00 0.01 0.01 83 1013.1
20210801040506 58 32 0.0 0.0 0.00 0.01 0.01 82 1013.3
20210801040013 58 32 0.0 0.0 0.00 0.01 0.01 83 1013.3
20210801035503 58 32 0.0 0.0 0.00 0.01 0.01 83 1013.3
20210801035003 58 32 0.0 0.0 0.00 0.01 0.01 84 1013.2
20210801034506 58 32 0.0 0.0 0.00 0.01 0.01 85 1013.2
20210801034003 58 32 0.0 0.0 0.00 0.01 0.01 85 1013.2
20210801033502 58 32 0.0 0.0 0.00 0.01 0.01 84 1013.2
20210801033026 58 32 0.0 2.0 0.00 0.01 0.01 85 1013.2
20210801032503 58 32 0.0 3.0 0.00 0.01 0.01 84 1013.2
20210801032059 58 32 1.0 3.0 0.00 0.01 0.01 83 1013.3
20210801031012 60 32 0.0 0.0 0.00 0.01 0.01 80 1013.3
20210801030530 60 32 0.0 0.0 0.00 0.01 0.01 78 1013.2
20210801030013 60 32 0.0 0.0 0.00 0.01 0.01 78 1013.2
20210801025511 61 32 0.0 0.0 0.00 0.01 0.01 78 1013.2
20210801025011 60 32 0.0 0.0 0.00 0.01 0.01 76 1013.3
20210801024519 60 32 0.0 0.0 0.00 0.01 0.01 77 1013.3
20210801024014 60 32 0.0 0.0 0.00 0.01 0.01 79 1013.4
20210801023510 61 32 0.0 0.0 0.00 0.01 0.01 78 1013.4
20210801023041 61 32 0.0 0.0 0.00 0.01 0.01 77 1013.4
20210801022511 61 32 0.0 0.0 0.00 0.01 0.01 76 1013.5
20210801022010 60 32 0.0 0.0 0.00 0.01 0.01 79 1013.4
20210801021100 62 32 0.0 1.0 0.00 0.01 0.01 75 1013.5
20210801021001 62 32 0.0 1.0 0.00 0.01 0.01 75 1013.5
20210801020504 62 32 0.0 0.0 0.00 0.01 0.01 74 1013.5
20210801020004 62 32 0.0 1.0 0.00 0.01 0.01 73 1013.5
20210801015605 63 32 0.0 1.0 0.00 0.01 0.01 74 1013.5
20210801015501 63 32 0.0 1.0 0.00 0.01 0.01 73 1013.5
20210801015100 63 32 0.0 1.0 0.00 0.01 0.01 73 1013.4
20210801014808 63 32 0.0 0.0 0.00 0.01 0.01 72 1013.4
20210801014100 64 32 0.0 0.0 0.00 0.01 0.01 69 1013.5
20210801013642 64 32 0.0 0.0 0.00 0.01 0.01 71 1013.4
20210801013156 64 32 0.0 0.0 0.00 0.01 0.01 69 1013.4
20210801012559 64 32 0.0 0.0 0.00 0.01 0.01 68 1013.4
20210801012105 64 32 0.0 0.0 0.00 0.01 0.01 71 1013.4
20210801011118 65 32 0.0 2.0 0.00 0.01 0.01 68 1013.2
20210801010558 66 32 0.0 2.0 0.00 0.01 0.01 66 1013.1
20210801010154 67 32 0.0 1.0 0.00 0.01 0.01 64 1013.1
20210801005557 67 32 0.0 2.0 0.00 0.01 0.01 62 1013.1
20210801005057 67 32 0.0 1.0 0.00 0.01 0.01 62 1013.1
20210801004639 67 32 0.0 0.0 0.00 0.01 0.01 62 1013.1
20210801004100 67 32 0.0 0.0 0.00 0.01 0.01 62 1013.0
20210801003556 67 32 0.0 0.0 0.00 0.01 0.01 61 1013.0
20210801003132 67 32 0.0 2.0 0.00 0.01 0.01 61 1013.1
20210801002557 67 32 0.0 3.0 0.00 0.01 0.01 60 1013.1
20210801002056 67 32 0.0 3.0 0.00 0.01 0.01 60 1013.0
20210801001058 68 32 1.0 3.0 0.00 0.01 0.01 59 1013.0
20210801000556 68 31 1.0 3.0 0.00 0.01 0.01 59 1013.1
20210801000114 68 31 0.0 3.0 0.00 0.01 0.01 58 1013.2
20210731235558 68 31 0.0 3.0 0.00 0.01 0.01 58 1013.2
20210731235127 69 31 0.0 3.0 0.00 0.01 0.01 58 1013.2
20210731234804 69 31 1.0 3.0 0.00 0.01 0.01 58 1013.1
20210731234059 69 31 1.0 3.0 0.00 0.01 0.01 58 1013.1
20210731233612 70 30 0.0 0.0 0.00 0.01 0.01 57 1013.2
20210731233125 71 30 0.0 1.0 0.00 0.01 0.01 57 1013.2
20210731232609 72 30 0.0 2.0 0.00 0.01 0.01 54 1013.3
20210731232058 73 30 0.0 2.0 0.00 0.01 0.01 51 1013.3
20210731231053 74 30 0.0 5.0 0.00 0.01 0.01 52 1013.2
20210731230553 74 30 2.0 5.0 0.00 0.01 0.01 48 1013.2
20210731230241 75 81 0.0 3.0 0.00 0.01 0.01 49 1013.2
20210731225609 75 81 0.0 4.0 0.00 0.01 0.01 47 1013.2
20210731225053 76 51 0.0 3.0 0.00 0.01 0.01 48 1013.2
20210731224723 76 327 0.0 4.0 0.00 0.01 0.01 50 1013.2
20210731224106 76 328 1.0 4.0 0.00 0.01 0.01 48 1013.1
20210731223552 75 328 1.0 4.0 0.00 0.01 0.01 48 1013.1
20210731223142 76 328 0.0 3.0 0.00 0.01 0.01 46 1013.1
20210731222551 75 328 0.0 2.0 0.00 0.01 0.01 49 1013.1
20210731222050 75 328 0.0 2.0 0.00 0.01 0.01 48 1013.2
20210731221051 75 328 0.0 1.0 0.00 0.01 0.01 51 1013.2
20210731220557 74 328 0.0 2.0 0.00 0.01 0.01 50 1013.2
20210731220140 73 328 0.0 4.0 0.00 0.01 0.01 53 1013.3
20210731215550 73 328 1.0 4.0 0.00 0.01 0.01 50 1013.3
20210731215048 74 328 2.0 7.0 0.00 0.01 0.01 47 1013.4
20210731214654 74 326 2.0 8.0 0.00 0.01 0.01 47 1013.5
20210731214110 74 330 4.0 9.0 0.00 0.01 0.01 46 1013.4
20210731213557 76 309 5.0 9.0 0.00 0.01 0.01 45 1013.5
20210731212548 76 336 2.0 7.0 0.00 0.01 0.01 47 1013.4
20210731212114 74 157 1.0 7.0 0.00 0.01 0.01 51 1013.6
20210731211047 73 168 0.0 9.0 0.00 0.01 0.01 51 1013.7
20210731210545 73 166 2.0 9.0 0.00 0.01 0.01 50 1013.6
20210731210120 75 131 3.0 6.0 0.00 0.01 0.01 46 1013.7
20210731205544 77 13 0.0 6.0 0.00 0.01 0.01 45 1013.8
20210731205047 77 108 1.0 7.0 0.00 0.01 0.01 44 1013.8
20210731204634 77 296 2.0 7.0 0.00 0.01 0.01 45 1013.9
20210731204119 76 317 1.0 5.0 0.00 0.01 0.01 45 1014.0
20210731203546 75 317 0.0 6.0 0.00 0.01 0.01 48 1014.0
20210731203109 73 317 2.0 7.0 0.00 0.01 0.01 52 1014.1
20210731202540 72 317 4.0 8.0 0.00 0.01 0.01 51 1014.1
20210731202047 73 314 5.0 8.0 0.00 0.01 0.01 48 1014.2
20210731201040 74 127 2.0 8.0 0.00 0.01 0.01 50 1014.2
20210731200539 73 292 5.0 8.0 0.00 0.01 0.01 51 1014.2
20210731200109 73 286 0.0 9.0 0.00 0.01 0.01 48 1014.2
20210731195539 73 309 2.0 9.0 0.00 0.01 0.01 53 1014.2
20210731195038 74 185 0.0 6.0 0.00 0.01 0.01 52 1014.2
20210731194649 74 242 1.0 8.0 0.00 0.01 0.01 49 1014.2
20210731194045 75 328 4.0 8.0 0.00 0.01 0.01 46 1014.2
20210731193538 74 306 1.0 5.0 0.00 0.01 0.01 49 1014.3
20210731193055 73 316 0.0 7.0 0.00 0.01 0.01 53 1014.4
20210731192545 72 316 4.0 7.0 0.00 0.01 0.01 50 1014.4
20210731192034 72 163 0.0 10.0 0.00 0.01 0.01 53 1014.5
20210731191034 73 294 1.0 7.0 0.00 0.01 0.01 51 1014.6
20210731190536 72 289 2.0 7.0 0.00 0.01 0.01 51 1014.6
20210731190209 71 316 3.0 7.0 0.00 0.01 0.01 52 1014.6
20210731185537 71 327 1.0 7.0 0.00 0.01 0.01 54 1014.6
20210731185048 72 237 2.0 11.0 0.00 0.01 0.01 55 1014.6
20210731184604 71 342 4.0 7.0 0.00 0.01 0.01 52 1014.6
20210731184032 71 26 1.0 5.0 0.00 0.01 0.01 55 1014.7
20210731183533 71 162 1.0 5.0 0.00 0.01 0.01 50 1014.6
20210731183043 71 217 1.0 8.0 0.00 0.01 0.01 51 1014.8
20210731182534 71 294 3.0 8.0 0.00 0.01 0.01 49 1014.8
20210731182030 72 323 3.0 7.0 0.00 0.01 0.01 51 1014.8
20210731181038 71 274 2.0 7.0 0.00 0.01 0.01 51 1015.0
20210731180530 70 315 2.0 7.0 0.00 0.01 0.01 53 1015.0
20210731180042 70 296 3.0 7.0 0.00 0.01 0.01 53 1014.9
20210731175530 69 169 1.0 12.0 0.00 0.01 0.01 54 1014.9
20210731175030 69 157 2.0 12.0 0.00 0.01 0.01 55 1015.0
20210731174638 71 99 4.0 8.0 0.00 0.01 0.01 51 1014.9
20210731174033 72 300 1.0 6.0 0.00 0.01 0.01 48 1014.9
20210731173610 72 345 1.0 6.0 0.00 0.01 0.01 51 1014.9
20210731173059 72 312 3.0 6.0 0.00 0.01 0.01 48 1015.0
20210731172532 71 344 1.0 3.0 0.00 0.01 0.01 48 1015.0
20210731172032 71 321 0.0 5.0 0.00 0.01 0.01 50 1015.2
20210731171026 70 312 4.0 7.0 0.00 0.01 0.01 51 1015.3
20210731170526 70 324 2.0 7.0 0.00 0.01 0.01 53 1015.3
20210731170046 69 338 3.0 9.0 0.00 0.01 0.01 53 1015.3
20210731165531 69 312 2.0 9.0 0.00 0.01 0.01 51 1015.3
20210731165109 70 325 4.0 8.0 0.00 0.01 0.01 50 1015.4
20210731164559 70 13 4.0 8.0 0.00 0.01 0.01 53 1015.6
20210731164022 70 343 1.0 6.0 0.00 0.01 0.01 54 1015.6
20210731163524 70 343 2.0 7.0 0.00 0.01 0.01 53 1015.6
20210731163123 69 325 3.0 8.0 0.00 0.01 0.01 55 1015.8
20210731162530 69 338 4.0 8.0 0.00 0.01 0.01 56 1015.8
20210731162020 66 263 1.0 10.0 0.00 0.01 0.01 60 1015.8
20210731161019 68 167 2.0 7.0 0.00 0.01 0.01 55 1015.8
20210731160518 67 322 1.0 9.0 0.00 0.01 0.01 57 1015.9
20210731160037 68 333 3.0 11.0 0.00 0.01 0.01 56 1015.9
20210731155529 69 320 3.0 8.0 0.00 0.01 0.01 55 1015.9
20210731155018 69 81 1.0 6.0 0.00 0.01 0.01 55 1015.9
20210731154519 70 347 0.0 5.0 0.00 0.01 0.01 51 1016.0
20210731154018 69 347 1.0 6.0 0.00 0.01 0.01 52 1016.1
20210731153516 69 355 2.0 6.0 0.00 0.01 0.01 55 1016.1
20210731153022 67 355 0.0 6.0 0.00 0.01 0.01 59 1016.3
20210731152540 67 342 3.0 10.0 0.00 0.01 0.01 57 1016.4
20210731152026 69 344 5.0 10.0 0.00 0.01 0.01 54 1016.4
20210731151014 69 360 3.0 5.0 0.00 0.01 0.01 54 1016.4
20210731150521 68 360 2.0 6.0 0.00 0.01 0.01 59 1016.6
20210731150028 67 14 1.0 7.0 0.00 0.01 0.01 59 1016.6
20210731145514 66 360 3.0 7.0 0.00 0.01 0.01 63 1016.5
20210731145011 64 209 0.0 5.0 0.00 0.01 0.01 69 1016.5
20210731144543 64 290 1.0 5.0 0.00 0.01 0.01 64 1016.5
20210731144011 63 296 0.0 6.0 0.00 0.01 0.01 67 1016.6
20210731143510 63 296 0.0 9.0 0.00 0.01 0.01 65 1016.5
20210731143025 66 307 4.0 9.0 0.00 0.01 0.01 61 1016.6
20210731142508 66 350 1.0 9.0 0.00 0.01 0.01 63 1016.6
20210731142008 65 309 4.0 9.0 0.00 0.01 0.01 62 1016.6
20210731141006 64 344 1.0 5.0 0.00 0.01 0.01 67 1016.6
20210731140511 63 322 3.0 6.0 0.00 0.01 0.01 66 1016.6
20210731140020 64 321 3.0 6.0 0.00 0.01 0.01 66 1016.6